Pittsfield, MA

9:59 AM EDT on September 26, 2017 (GMT -0400)
Pittsfield Municipal

Weather History for KPSF - January, 2013

Change the Weather History Date:

Wednesday, January 2, 2013

  Actual Average Record
Temperature  
Mean Temperature 14 °F 21 °F  
Max Temperature 22 °F 30 °F 54 °F (2000)
Min Temperature 5 °F 13 °F -15 °F (1968)
Degree Days  
Heating Degree Days 51 44  
Month to date heating degree days 94 87  
Since 1 July heating degree days 2630 2925  
Cooling Degree Days 0 0  
Month to date cooling degree days 0 0  
Year to date cooling degree days 0 0  
Moisture  
Dew Point 7 °F    
Average Humidity 75    
Maximum Humidity 88    
Minimum Humidity 61    
Precipitation  
Precipitation T in 0.12 in 1.26 in (1936)
Month to date precipitation T 0.24  
Year to date precipitation T 0.24  
Sea Level Pressure  
Sea Level Pressure 29.98 in    
Wind  
Wind Speed 9 mph (West)    
Max Wind Speed 23 mph    
Max Gust Speed 31 mph    
Visibility 10 miles    
Events Snow    
T = Trace of Precipitation, MM = Missing Value Source: NWS Daily Summary

Daily Weather History Graph

Daily Weather History Graph

Search for Another Location

Airport or City:

Trip Planner

Search our weather history database for the weather conditions in past years. The results will help you decide how hot, cold, wet, or windy it might be!

Date:

Astronomy

Jan. 02, 2013 Rise Set
Actual Time 7:22 AM EST 4:32 PM EST
Civil Twilight 6:50 AM EST 5:04 PM EST
Nautical Twilight 6:15 AM EST 5:39 PM EST
Astronomical Twilight 5:41 AM EST 6:13 PM EST
Moon 10:09 PM EST (1/2) 9:56 AM EST (1/2)
Length of Visible Light 10h 13m
Length of Day
9h 09m
Waning Gibbous, 75% of the Moon is Illuminated
Jan 2
Waning Gibbous
Jan 4
Last Quarter
Jan 11
New
Jan 18
First Quarter
Jan 26
Full

Hourly Weather History & Observations

Time (EST) Temp. Windchill Dew Point Humidity Pressure Visibility Wind Dir Wind Speed Gust Speed Precip Events Conditions
12:54 AM 14.0 °F 1.2 °F 7.0 °F 74% 29.94 in 10.0 mi West 10.4 mph 18.4 mph N/A   Overcast
1:18 AM 12.2 °F -0.2 °F 6.8 °F 79% 29.88 in 10.0 mi West 9.2 mph - N/A   Partly Cloudy
1:54 AM 12.9 °F -0.2 °F 6.1 °F 74% 29.96 in 10.0 mi West 10.4 mph - N/A   Clear
2:54 AM 12.0 °F 4.1 °F 6.1 °F 77% 29.97 in 10.0 mi Variable 4.6 mph - N/A   Clear
3:54 AM 10.9 °F - 5.0 °F 77% 29.95 in 10.0 mi Calm Calm - N/A   Clear
4:54 AM 7.0 °F - 3.0 °F 84% 29.96 in 10.0 mi Calm Calm - N/A   Clear
5:54 AM 9.0 °F 0.6 °F 3.9 °F 80% 29.95 in 10.0 mi South 4.6 mph - N/A   Partly Cloudy
6:54 AM 6.1 °F - 3.0 °F 87% 29.95 in 10.0 mi Calm Calm - N/A   Mostly Cloudy
7:54 AM 12.0 °F 2.7 °F 6.1 °F 77% 29.95 in 10.0 mi SSW 5.8 mph - N/A   Overcast
8:54 AM 14.0 °F 5.1 °F 7.0 °F 74% 29.95 in 8.0 mi West 5.8 mph - N/A   Overcast
9:05 AM 17.6 °F 3.7 °F 6.8 °F 63% 29.88 in 10.0 mi West 13.8 mph - N/A   Overcast
9:54 AM 18.0 °F 4.2 °F 9.0 °F 68% 29.96 in 7.0 mi West 13.8 mph - 0.00 in   Overcast
10:54 AM 19.0 °F 4.0 °F 10.0 °F 68% 29.97 in 4.0 mi West 17.3 mph 26.5 mph 0.00 in Snow Light Snow
11:54 AM 21.0 °F 8.1 °F 12.0 °F 68% 29.94 in 6.0 mi WNW 13.8 mph 26.5 mph 0.00 in Snow Light Snow
12:54 PM 21.9 °F 9.2 °F 12.9 °F 68% 29.94 in 10.0 mi WNW 13.8 mph 24.2 mph 0.00 in   Overcast
1:29 PM 21.2 °F 6.0 °F 12.2 °F 68% 29.88 in 10.0 mi West 19.6 mph 29.9 mph N/A   Overcast
1:54 PM 21.9 °F 9.2 °F 12.9 °F 68% 29.95 in 10.0 mi West 13.8 mph 19.6 mph N/A   Overcast
2:08 PM 21.2 °F 9.5 °F 12.2 °F 68% 29.89 in 10.0 mi WNW 11.5 mph 26.5 mph N/A   Overcast
2:54 PM 21.9 °F 9.2 °F 12.0 °F 66% 29.98 in 10.0 mi WNW 13.8 mph 24.2 mph N/A   Overcast
3:29 PM 21.2 °F 8.9 °F 12.2 °F 68% 29.93 in 10.0 mi West 12.7 mph 24.2 mph N/A   Overcast
4:19 PM 21.2 °F 8.9 °F 10.4 °F 63% 29.95 in 10.0 mi West 12.7 mph 21.9 mph N/A   Overcast
4:54 PM 21.0 °F 7.6 °F 10.9 °F 65% 30.03 in 10.0 mi WNW 15.0 mph 21.9 mph N/A   Overcast
5:54 PM 19.0 °F 4.5 °F 8.1 °F 62% 30.06 in 10.0 mi West 16.1 mph 21.9 mph N/A   Partly Cloudy
6:54 PM 18.0 °F 8.7 °F 6.1 °F 60% 30.08 in 10.0 mi Variable 6.9 mph 19.6 mph N/A   Partly Cloudy
7:54 PM 16.0 °F 3.6 °F 5.0 °F 62% 30.09 in 10.0 mi WNW 10.4 mph 17.3 mph N/A   Clear
8:54 PM 12.9 °F 2.6 °F 3.9 °F 67% 30.11 in 10.0 mi WNW 6.9 mph - N/A   Clear
9:54 PM 9.0 °F -4.2 °F 1.0 °F 70% 30.13 in 10.0 mi North 9.2 mph - N/A   Clear
10:54 PM 6.1 °F -6.8 °F -2.9 °F 67% 30.15 in 10.0 mi NW 8.1 mph - N/A   Clear
11:54 PM 5.0 °F -6.9 °F -4.0 °F 66% 30.17 in 10.0 mi NW 6.9 mph - N/A   Clear